Flag for Bosnia-Herzegovina Weather past 2 weeks in Mostar, Bosnia-Herzegovina

Now
79 °F

Passing clouds.


Feels Like: 79 °F
Forecast: 53 / 91 °F
Wind: 5 mph from Northeast

Location: Mostar

Current Time: Aug 28, 2014 at 11:30:27 AM

Latest Report: Aug 28, 2014 at 11:00 AM


Visibility: N/A

Pressure: 29.95 "Hg

Humidity: 42%

Dew point: 54 °F

Location of MostarLocation

Historic Weather in Mostar — Graph

°F

Mostar temperature yesterday

Maximum temperature yesterday: 88 °F (at 3:00 PM)
Minimum temperature yesterday: 63 °F (at 5:00 AM)
Average temperature yesterday: 76 °F

Past Weeks' High & Low Weather Summary

 TemperatureHumidityPressure
High97 °F (Aug 13, 2:00 PM)100% (Aug 22, 6:00 AM)30.01 "Hg (Aug 22, 6:00 AM)
Low54 °F (Aug 19, 6:00 AM)28% (Aug 13, 2:00 PM)29.74 "Hg (Aug 14, 2:30 PM)
Average75 °F61%29.92 "Hg
* Reported Aug 13 10:00 AM — Aug 28 10:30 AM, Mostar, Weather by CustomWeather, © 2014

Note: Actual official high and low records may vary slightly from our data, if they occured in-between our weather recording intervals... More about our weather records

Advertising

Mostar weather history for previous 24 hours

 ConditionsComfort  
Time TempWeatherWind HumidityBarometerVisibility
10:30 AM
Aug 28
79 °FPassing clouds.3 mph45%29.98 "HgN/A
10:00 AM77 °FPassing clouds.3 mph44%29.98 "HgN/A
9:30 AM75 °FPassing clouds.3 mph47%29.98 "HgN/A
9:00 AM75 °FPassing clouds.2 mph50%29.98 "HgN/A
8:00 AM73 °FPassing clouds.3 mph57%29.95 "HgN/A
7:00 AM72 °FPassing clouds.3 mph57%29.95 "HgN/A
6:00 AM72 °FPassing clouds.6 mph57%29.92 "HgN/A
5:00 AM73 °FPassing clouds.12 mph53%29.92 "HgN/A
4:00 AM73 °FClear.2 mph61%29.89 "Hg10 mi
3:00 AM68 °FClear.2 mph88%29.89 "Hg10 mi
2:00 AM70 °FPassing clouds.3 mph88%29.89 "HgN/A
1:00 AM72 °FPassing clouds.2 mph83%29.89 "HgN/A
12:00 AM73 °FClear.2 mph83%29.89 "Hg10 mi
11:00 PM
Aug 27
73 °FPassing clouds.3 mph83%29.89 "HgN/A
10:00 PM75 °FPassing clouds.5 mph78%29.86 "HgN/A
9:00 PM77 °FPassing clouds.3 mph74%29.86 "HgN/A
8:00 PM81 °FScattered clouds.2 mph66%29.83 "HgN/A
7:30 PM81 °FScattered clouds.5 mph62%29.83 "HgN/A
6:30 PM84 °FScattered clouds.6 mph51%29.83 "HgN/A
6:00 PM84 °FScattered clouds.8 mph51%29.83 "HgN/A
5:00 PM86 °FScattered clouds.8 mph46%29.83 "HgN/A
4:30 PM86 °FPassing clouds.8 mph49%29.83 "HgN/A
4:00 PM86 °FPassing clouds.8 mph49%29.83 "HgN/A
3:30 PM88 °FScattered clouds.7 mph43%29.83 "HgN/A
3:00 PM88 °FPassing clouds.8 mph43%29.83 "HgN/A
2:00 PM86 °FPassing clouds.3 mph43%29.83 "HgN/A
1:00 PM86 °FPassing clouds.5 mph43%29.86 "HgN/A
12:00 PM84 °FPassing clouds.5 mph43%29.86 "HgN/A
11:00 AM79 °FPassing clouds.3 mph54%29.89 "HgN/A
Weather by CustomWeather, © 2014

See weather overviewHow to use our weather pages